This demonstration page uses our WeatherBlox Daily Observations layout. Learn more.

Left ArrowRight Arrow

Hourly Observations for January 21, 2020

Temp ( °F °C ) Dew Point ( °F °C ) Humidity (%) Winds ( mph kmh ) Pressure ( in mb ) Visibility ( mi km ) Precip ( " mm )
12:53 am 00:53 Clear 25 -3.9 14 -10 63 63 NW 5 7 30.38 1029 10 16 0.00 0.00
1:53 am 01:53 Clear 24 -4.4 13 -10.6 62 62 NW 5 7 30.38 1029 10 16 0.00 0.00
2:53 am 02:53 Clear 24 -4.4 14 -10 65 65 N 3 6 30.38 1029 10 16 0.00 0.00
3:53 am 03:53 Clear 23 -5 14 -10 68 68 Calm 30.37 1029 10 16 0.00 0.00
4:53 am 04:53 Cloudy 24 -4.4 16 -8.9 71 71 Calm 30.38 1029 10 16 0.00 0.00
5:53 am 05:53 Cloudy 25 -3.9 16 -8.9 69 69 NNW 5 7 30.40 1030 10 16 0.00 0.00
6:53 am 06:53 Cloudy 26 -3.3 16 -8.9 66 66 NNW 5 7 30.43 1031 10 16 0.00 0.00
7:53 am 07:53 Cloudy 26 -3.3 16 -8.9 66 66 NNW 5 7 30.46 1031 10 16 0.00 0.00
8:53 am 08:53 Cloudy 27 -2.8 17 -8.3 66 66 N 5 7 30.49 1033 10 16 0.00 0.00
9:53 am 09:53 Cloudy 29 -1.7 17 -8.3 61 61 VRB 5 7 30.50 1033 10 16 0.00 0.00
10:53 am 10:53 Mostly Cloudy 32 0 18 -7.8 56 56 VRB 6 9 30.51 1033 10 16 0.00 0.00
11:53 am 11:53 Sunny 36 2.2 18 -7.8 48 48 VRB 6 9 30.48 1032 10 16 0.00 0.00
12:53 pm 12:53 Sunny 38 3.3 18 -7.8 44 44 VRB 6 9 30.46 1032 10 16 0.00 0.00
1:53 pm 13:53 Sunny 38 3.3 17 -8.3 43 43 undefined N/A 30.43 1030 10 16 0.00 0.00
2:53 pm 14:53 Mostly Sunny 39 3.9 17 -8.3 41 41 NNW 14 22 30.41 1030 10 16 0.00 0.00
3:53 pm 15:53 Sunny 39 3.9 16 -8.9 39 39 NNW 10 17 30.40 1029 10 16 0.00 0.00
4:53 pm 16:53 Sunny 39 3.9 13 -10.6 34 34 N 9 15 30.40 1030 10 16 0.00 0.00
5:53 pm 17:53 Sunny 36 2.2 14 -10 40 40 NNW 6 9 30.40 1029 10 16 0.00 0.00
6:53 pm 18:53 Clear 33 0.6 14 -10 45 45 NNW 6 9 30.40 1029 10 16 0.00 0.00
7:53 pm 19:53 Clear 32 0 13 -10.6 45 45 NNW 5 7 30.42 1030 10 16 0.00 0.00
8:53 pm 20:53 Clear 30 -1.1 13 -10.6 49 49 NW 3 6 30.42 1030 10 16 0.00 0.00
9:53 pm 21:53 Clear 30 -1.1 13 -10.6 49 49 NW 5 7 30.42 1030 10 16 0.00 0.00
10:53 pm 22:53 Clear 29 -1.7 13 -10.6 51 51 VRB 3 6 30.45 1031 10 16 0.00 0.00
11:53 pm 23:53 Clear 28 -2.2 13 -10.6 53 53 Calm 30.44 1031 10 16 0.00 0.00

Powered by AerisWeather